Location: Blienschwiller
(48.3416°N, 7.4182°E)
Time: 05:00:48
(UTC+00:00)

Cosmos 921 Rocket - Pass Details

Date: 18 February 2020
Orbit: 572 x 631 km, 75.8° (Epoch: 28 March)

Event Time Altitude Azimuth Distance (km) Brightness Sun altitude
Rises 04:15:24 0° 344° (NNW) 2,919 6.5 -23.5°
Reaches altitude 10° 04:17:46 10° 352° (N) 2,000 5.7 -23.1°
Maximum altitude 04:22:01 42° 64° (ENE) 884 4.3 -22.4°
Drops below altitude 10° 04:26:10 10° 136° (SE) 1,953 6.1 -21.8°
Sets 04:28:28 0° 143° (SE) 2,842 6.9 -21.4°
